Flag for United Kingdom Weather past 2 weeks in Londonderry, Northern Ireland, United Kingdom

Now
50 °F

Light freezing rain. Overcast.


Feels Like: 46 °F
Forecast: 47 / 58 °F
Wind: 10 mph from Southwest

Location: Castlederg

Current Time: Oct 22, 2014 at 7:33:00 AM

Latest Report: Oct 22, 2014 at 7:00 AM


Visibility: 4 mi

Pressure: 30.16 "Hg

Humidity: 86%

Dew point: 46 °F

Location of LondonderryLocation

Historic Weather in Londonderry — Graph

°F

Londonderry temperature yesterday

Maximum temperature yesterday: 55 °F (at 1:00 AM)
Minimum temperature yesterday: 46 °F (at 7:00 PM)
Average temperature yesterday: 49 °F

Past Weeks' High & Low Weather Summary

 TemperatureHumidityPressure
High62 °F (Oct 18, 2:00 PM)100% (Oct 7, 6:00 AM)30.19 "Hg (Oct 7, 6:00 AM)
Low34 °F (Oct 7, 8:00 AM)55% (Oct 21, 3:00 PM)29.06 "Hg (Oct 8, 5:00 PM)
Average50 °F88%29.57 "Hg
* Reported Oct 7 6:00 AM — Oct 22 6:00 AM, Londonderry, Weather by CustomWeather, © 2014

Note: Actual official high and low records may vary slightly from our data, if they occured in-between our weather recording intervals... More about our weather records

Advertising

Londonderry weather history for previous 24 hours

 ConditionsComfort  
Time TempWeatherWind HumidityBarometerVisibility
6:00 AM
Oct 22
50 °FCool.10 mph83%30.15 "Hg6 mi
5:00 AM49 °FCool.3 mph80%30.16 "Hg8 mi
4:00 AM48 °FCool.7 mph78%30.17 "Hg8 mi
3:00 AM47 °FCool.7 mph77%30.18 "Hg9 mi
2:00 AM48 °FCool.8 mph75%30.19 "Hg10 mi
1:00 AM47 °FCool.6 mph77%30.19 "Hg9 mi
12:00 AM47 °FCool.8 mph69%30.17 "Hg11 mi
11:00 PM
Oct 21
50 °FCool.10 mph69%30.15 "Hg9 mi
10:00 PM48 °FCool.9 mph65%30.14 "Hg10 mi
9:00 PM46 °FCool.8 mph75%30.12 "Hg8 mi
8:00 PM46 °FRain showers. Overcast.13 mph78%30.10 "Hg11 mi
7:00 PM46 °FCool.10 mph77%30.09 "Hg13 mi
6:00 PM47 °FLots of rain. Cloudy.14 mph68%30.06 "Hg8 mi
5:00 PM48 °FCool.10 mph55%30.03 "Hg11 mi
4:00 PM47 °FLots of rain. Cloudy.16 mph70%29.99 "Hg4 mi
3:00 PM50 °FCool.14 mph55%29.93 "Hg11 mi
2:00 PM50 °FCool.14 mph59%29.90 "Hg7 mi
1:00 PM49 °FCool.14 mph60%29.83 "Hg9 mi
12:00 PM49 °FCool.14 mph68%29.78 "Hg9 mi
11:00 AM47 °FRain showers. Cloudy.14 mph74%29.73 "Hg3 mi
10:00 AM46 °FLots of rain. Cloudy.10 mph76%29.67 "Hg9 mi
9:00 AM46 °FCool.13 mph75%29.62 "Hg16 mi
8:00 AM47 °FCool.14 mph72%29.57 "Hg11 mi
7:00 AM47 °FCool.12 mph71%29.50 "Hg11 mi
Weather by CustomWeather, © 2014

See weather overviewHow to use our weather pages